CDT,Max TemperatureF,Mean TemperatureF,Min TemperatureF,Max Dew PointF,MeanDew PointF,Min DewpointF,Max Humidity, Mean Humidity, Min Humidity, Max Sea Level PressureIn, Mean Sea Level PressureIn, Min Sea Level PressureIn, Max VisibilityMiles, Mean VisibilityMiles, Min VisibilityMiles, Max Wind SpeedMPH, Mean Wind SpeedMPH, Max Gust SpeedMPH,PrecipitationIn, CloudCover, Events, WindDirDegrees
2011-10-1,66,55,44,43,40,37,87,61,35,30.27,30.21,30.09,10,10,10,13,6,21,0.00,0,,359
2011-10-2,69,55,41,45,38,32,93,60,25,30.30,30.25,30.19,10,10,10,12,3,17,0.00,0,,2
2011-10-3,75,58,41,54,43,36,94,66,24,30.28,30.22,30.18,10,8,1,7,1,,0.00,0,,256
2011-10-4,78,61,44,59,46,41,94,68,26,30.31,30.25,30.21,10,7,0,5,0,,0.00,1,Fog,206
2011-10-5,82,63,44,61,50,43,100,70,30,30.28,30.22,30.15,10,8,0,5,0,,0.00,0,Fog,160
2011-10-6,84,68,51,63,54,50,94,70,33,30.25,30.20,30.17,10,8,0,8,1,,0.00,0,Fog,145
2011-10-7,84,68,51,61,54,50,94,68,33,30.33,30.26,30.21,10,8,0,10,2,,0.00,0,Fog,147
2011-10-8,82,66,51,59,55,48,94,68,37,30.35,30.28,30.23,10,8,0,14,4,17,0.00,0,Fog,130
2011-10-9,82,66,50,61,49,39,94,63,21,30.32,30.24,30.15,10,9,2,10,2,,0.00,0,,101
2011-10-10,82,66,51,59,54,48,94,71,42,30.18,30.10,30.02,10,10,5,8,2,,0.00,1,,111
2011-10-11,84,70,57,61,57,52,94,70,35,30.01,29.95,29.87,10,9,2,7,1,,0.00,2,,112
2011-10-12,77,68,59,63,60,55,94,78,57,29.89,29.82,29.72,10,10,7,9,5,,0.04,4,Rain-Thunderstorm,213
2011-10-13,75,68,60,61,55,46,94,73,41,29.73,29.66,29.62,10,10,5,13,7,25,0.07,6,Rain,267
2011-10-14,77,64,51,46,40,34,72,46,21,29.90,29.84,29.77,10,10,10,13,8,22,0.00,1,,262
2011-10-15,73,58,42,46,36,32,81,42,22,30.13,30.06,29.98,10,10,10,10,6,,0.00,0,,269
2011-10-16,87,70,53,52,46,41,67,46,24,30.05,29.95,29.84,10,10,7,17,7,24,0.00,0,,201
2011-10-17,71,62,53,46,40,36,63,45,29,30.00,29.94,29.84,10,9,2,13,6,16,0.00,0,,40
2011-10-18,55,50,46,45,42,32,87,75,44,29.85,29.80,29.77,10,8,2,16,11,22,0.60,7,Rain-Thunderstorm,359
2011-10-19,50,47,44,43,41,39,87,78,71,29.79,29.73,29.70,10,9,4,18,11,26,0.09,8,Rain,301
2011-10-20,60,51,42,37,35,32,76,58,34,30.04,29.89,29.78,10,10,10,18,10,28,0.00,4,,273
2011-10-21,64,50,37,41,33,28,87,56,26,30.20,30.14,30.07,10,10,10,9,5,,0.00,0,,269
2011-10-22,71,53,35,48,40,34,94,68,31,30.19,30.12,30.06,10,9,1,8,2,,0.00,0,,185
2011-10-23,69,56,44,50,45,43,93,70,40,30.08,30.05,30.02,10,10,10,8,2,,0.00,1,,186
2011-10-24,77,64,50,54,47,36,94,67,22,30.19,30.14,30.09,10,9,2,9,5,,0.00,0,,238
2011-10-25,78,61,44,57,47,43,94,64,29,30.19,30.11,29.95,10,9,0,18,4,25,0.00,0,Fog,188
2011-10-26,73,68,62,63,54,48,94,66,53,29.96,29.91,29.84,10,9,4,14,6,20,0.07,6,Rain-Thunderstorm,205
2011-10-27,53,52,50,48,45,41,88,78,67,30.12,30.00,29.90,10,9,5,14,9,21,0.16,7,Rain-Thunderstorm,350
2011-10-28,59,50,41,41,37,30,87,61,36,30.19,30.14,30.10,10,10,2,13,6,18,0.00,5,,18
2011-10-29,62,47,32,41,31,21,100,61,20,30.21,30.16,30.13,10,8,1,13,2,20,0.00,1,,287
2011-10-30,64,50,35,37,33,28,87,55,26,30.23,30.16,30.08,10,10,10,15,4,22,0.00,1,,185
2011-10-31,68,52,37,41,34,27,87,54,21,30.17,30.14,30.10,10,10,10,15,5,18,0.00,0,,242